Retour au catalogue

CORVUS BC1

ActifScienceSSO
NORAD 42847·PAYLOAD·🇺🇸 United States

Lancé Jul 14, 2017 depuis Baikonur Cosmodrome

Loading…

Prochains Passages (prochaines 24 heures)

TLE

FraisSource: Space-Track

Époque: Sep 14, 2026, 09:08 UTC

1 42847U 17042Y   26257.38108692  .00002773  00000-0  18931-3 0  9992
2 42847  97.4212  56.2233 0012789 137.5243 222.6977 15.06916439500526

Suivez CORVUS BC1 en temps réel avec AllMySat

Download on the App Store